N0ZMJ-4 Weather Reports


time (UTC)temp
C
wind
direction
speed
KPH
gust
KPH
rain 1hr
cm
rain 24hr
cm
rain mn
cm
humidity
%
barometer
mb
20260906193503 20 114 4.8 27.4 0.10 0.10 0.10 98 1017.0
20260906193003 21 105 8.0 24.1 0.10 0.10 0.10 96 1016.7
20260906192503 21 123 8.0 30.6 0.05 0.05 0.05 94 1016.6
20260906192003 23 115 4.8 30.6 0.00 0.00 0.00 91 1016.7
20260906191502 24 164 9.7 20.9 0.00 0.00 0.00 87 1016.6
20260906191003 26 116 6.4 17.7 0.00 0.00 0.00 89 1016.5
20260906190503 26 234 1.6 4.8 0.00 0.00 0.00 90 1015.9
20260906190003 26 234 1.6 3.2 0.00 0.00 0.00 91 1015.5
20260906185503 26 234 0.0 3.2 0.00 0.00 0.00 91 1015.3
20260906185003 26 235 0.0 6.4 0.00 0.00 0.00 91 1015.2
20260906184503 26 234 0.0 11.3 0.00 0.00 0.00 90 1015.2
20260906184003 26 232 3.2 11.3 0.00 0.00 0.00 90 1015.1
20260906183503 26 198 3.2 6.4 0.00 0.00 0.00 91 1015.1
20260906183003 26 194 1.6 6.4 0.00 0.00 0.00 91 1014.9
20260906182503 26 225 1.6 6.4 0.00 0.00 0.00 92 1014.8
20260906182003 26 224 1.6 4.8 0.00 0.00 0.00 92 1014.9
20260906181503 26 224 1.6 8.0 0.00 0.00 0.00 92 1015.1
20260906181002 26 219 3.2 11.3 0.00 0.00 0.00 91 1015.3
20260906180503 26 221 1.6 11.3 0.00 0.00 0.00 92 1015.3
20260906180003 26 211 3.2 8.0 0.00 0.00 0.00 92 1015.5
20260906175503 26 208 1.6 9.7 0.00 0.00 0.00 92 1015.7
20260906175003 26 247 1.6 9.7 0.00 0.00 0.00 92 1015.6
20260906174503 26 248 1.6 8.0 0.00 0.00 0.00 91 1015.5
20260906174003 26 232 1.6 6.4 0.00 0.00 0.00 93 1015.4
20260906173503 26 233 0.0 4.8 0.00 0.00 0.00 93 1015.2
20260906173003 26 232 0.0 6.4 0.00 0.00 0.00 93 1015.2
20260906172503 26 232 1.6 6.4 0.00 0.00 0.00 94 1015.2
20260906172003 26 232 3.2 4.8 0.00 0.00 0.00 94 1015.2
20260906171503 26 232 0.0 9.7 0.00 0.00 0.00 94 1015.2
20260906171003 26 233 3.2 9.7 0.00 0.00 0.00 95 1015.2
20260906170503 26 211 3.2 6.4 0.00 0.00 0.00 95 1015.3
20260906170003 26 208 1.6 4.8 0.00 0.00 0.00 95 1015.3
20260906165503 26 209 0.0 3.2 0.00 0.00 0.00 97 1015.1
20260906165003 26 208 0.0 4.8 0.00 0.00 0.00 98 1015.1
20260906164502 26 208 1.6 6.4 0.00 0.00 0.00 98 1015.1
20260906164003 26 208 1.6 6.4 0.00 0.00 0.00 99 1015.1
20260906163502 26 209 1.6 8.0 0.00 0.00 0.00 99 1015.1
20260906163003 26 211 0.0 8.0 0.00 0.00 0.00 100 1015.1
20260906162503 26 221 1.6 4.8 0.00 0.00 0.00 100 1015.0
20260906162003 25 207 0.0 4.8 0.00 0.00 0.00 100 1015.0
20260906161503 25 185 3.2 8.0 0.00 0.00 0.00 100 1014.9
20260906161003 25 186 1.6 8.0 0.00 0.00 0.00 100 1014.9
20260906160503 25 173 1.6 9.7 0.00 0.00 0.00 100 1014.9
20260906160003 25 147 3.2 9.7 0.00 0.00 0.00 100 1014.9
20260906155503 25 183 0.0 9.7 0.00 0.00 0.00 100 1014.9
20260906155003 25 180 1.6 9.7 0.00 0.00 0.00 100 1014.9
20260906154503 25 191 1.6 9.7 0.00 0.00 0.00 100 1015.0
20260906154003 25 182 4.8 9.7 0.00 0.00 0.00 100 1014.9
20260906153503 25 157 1.6 9.7 0.00 0.00 0.00 100 1014.8
20260906153002 25 172 3.2 9.7 0.00 0.00 0.00 100 1014.6
20260906152503 25 177 4.8 8.0 0.00 0.00 0.00 100 1014.7
20260906152002 25 164 0.0 9.7 0.00 0.00 0.00 100 1014.7
20260906151504 25 172 4.8 11.3 0.00 0.00 0.00 100 1014.7
20260906151003 25 169 1.6 11.3 0.00 0.00 0.00 100 1014.7
20260906150503 25 156 1.6 9.7 0.00 0.00 0.00 100 1014.7
20260906150003 25 181 1.6 9.7 0.00 0.00 0.00 100 1014.8
20260906145503 25 173 3.2 8.0 0.00 0.00 0.00 100 1014.9
20260906145003 25 178 1.6 14.5 0.00 0.00 0.00 100 1014.9
20260906144503 25 184 3.2 14.5 0.00 0.00 0.00 100 1014.9
20260906144003 25 120 3.2 11.3 0.00 0.00 0.00 100 1014.8
20260906143502 25 180 4.8 11.3 0.00 0.00 0.00 100 1014.7
20260906143003 25 177 1.6 11.3 0.00 0.00 0.00 100 1014.6
20260906142503 25 170 3.2 9.7 0.00 0.00 0.00 100 1014.7
20260906142003 24 188 1.6 9.7 0.00 0.00 0.00 100 1014.6
20260906141503 24 128 1.6 9.7 0.00 0.00 0.00 100 1014.5
20260906141003 24 140 3.2 9.7 0.00 0.00 0.00 100 1014.5
20260906140503 24 87 4.8 11.3 0.00 0.00 0.00 100 1014.4
20260906140003 24 161 3.2 11.3 0.00 0.00 0.00 100 1014.4
20260906135503 24 125 1.6 11.3 0.00 0.00 0.00 100 1014.5
20260906135003 24 97 4.8 11.3 0.00 0.00 0.00 100 1014.5
20260906134503 24 98 1.6 11.3 0.00 0.00 0.00 100 1014.5
20260906134003 24 121 3.2 11.3 0.00 0.00 0.00 100 1014.5
20260906133503 24 110 3.2 8.0 0.00 0.00 0.00 100 1014.5
20260906133003 23 106 1.6 11.3 0.00 0.00 0.00 100 1014.3
20260906132503 23 102 6.4 12.9 0.00 0.00 0.00 100 1014.5
20260906132002 23 85 3.2 12.9 0.00 0.00 0.00 100 1014.4
20260906131503 23 111 4.8 11.3 0.00 0.00 0.00 100 1014.3
20260906131002 23 100 4.8 8.0 0.00 0.00 0.00 100 1014.5
20260906130503 23 94 3.2 8.0 0.00 0.00 0.00 100 1014.4
20260906130002 23 91 4.8 8.0 0.00 0.00 0.00 100 1014.4
20260906125503 23 95 3.2 11.3 0.00 0.00 0.00 100 1014.4
20260906125003 23 114 6.4 11.3 0.00 0.00 0.00 100 1014.5
20260906124503 23 96 4.8 8.0 0.00 0.00 0.00 100 1014.4
20260906124003 23 127 3.2 8.0 0.00 0.00 0.00 100 1014.3
20260906123502 23 93 4.8 9.7 0.00 0.00 0.00 100 1014.2
20260906123003 23 118 4.8 9.7 0.00 0.00 0.00 100 1014.1
20260906122502 23 84 1.6 8.0 0.00 0.00 0.00 100 1013.9
20260906122003 23 112 3.2 8.0 0.00 0.00 0.00 100 1014.0
20260906121503 23 95 1.6 9.7 0.00 0.00 0.00 100 1013.9
20260906121003 23 98 3.2 11.3 0.00 0.00 0.00 100 1013.9
20260906120503 23 95 4.8 11.3 0.00 0.00 0.00 100 1013.7
20260906120003 23 100 4.8 8.0 0.00 0.00 0.00 100 1013.7
20260906115503 23 108 3.2 9.7 0.00 0.03 0.00 100 1013.6
20260906115003 23 91 4.8 9.7 0.00 0.03 0.00 100 1013.6
20260906114503 23 96 4.8 9.7 0.00 0.05 0.00 100 1013.6
20260906114003 23 98 3.2 9.7 0.00 0.10 0.00 100 1013.6
20260906113503 23 157 1.6 8.0 0.00 0.15 0.00 100 1013.7
20260906113003 23 122 3.2 8.0 0.00 0.20 0.00 100 1013.6
20260906112503 23 115 3.2 8.0 0.00 0.25 0.00 100 1013.6
20260906112003 23 98 3.2 8.0 0.00 0.33 0.00 100 1013.5
20260906111503 23 128 3.2 8.0 0.00 0.41 0.00 100 1013.5
20260906111003 23 94 1.6 8.0 0.00 0.46 0.00 100 1013.6
20260906110503 23 150 3.2 8.0 0.00 0.51 0.00 100 1013.6
20260906110002 23 101 3.2 8.0 0.00 0.58 0.00 100 1013.6
20260906105503 23 121 1.6 9.7 0.00 0.66 0.00 100 1013.6
20260906105002 23 98 1.6 9.7 0.00 0.69 0.00 100 1013.7
20260906104503 23 108 1.6 8.0 0.00 0.71 0.00 100 1013.6
20260906104003 23 91 4.8 8.0 0.00 0.74 0.00 100 1013.6
20260906103503 23 118 1.6 9.7 0.00 0.76 0.00 100 1013.6
20260906103003 23 117 3.2 9.7 0.00 0.76 0.00 100 1013.6
20260906102503 23 112 3.2 9.7 0.00 0.81 0.00 100 1013.6
20260906102003 23 104 4.8 9.7 0.00 0.86 0.00 100 1013.4
20260906101503 23 93 6.4 9.7 0.00 0.91 0.00 100 1013.4
20260906101003 23 108 6.4 11.3 0.00 0.91 0.00 100 1013.5
20260906100503 23 86 4.8 12.9 0.00 0.91 0.00 100 1013.5
20260906100003 23 87 4.8 12.9 0.00 0.91 0.00 100 1013.6
20260906095503 22 107 4.8 9.7 0.00 0.91 0.00 100 1013.6
20260906095003 22 93 6.4 9.7 0.00 0.91 0.00 100 1013.6
20260906094503 22 103 3.2 6.4 0.00 0.91 0.00 100 1013.7
20260906094003 22 103 3.2 6.4 0.00 0.91 0.00 100 1013.7
20260906093503 22 103 3.2 6.4 0.00 0.91 0.00 100 1013.7
20260906093003 22 77 0.0 6.4 0.00 0.91 0.00 100 1013.7
20260906092503 22 94 4.8 6.4 0.00 0.91 0.00 100 1013.9
20260906092002 22 102 3.2 9.7 0.00 0.91 0.00 100 1013.9
20260906091503 22 102 4.8 9.7 0.00 0.91 0.00 100 1013.9
20260906091002 22 125 4.8 9.7 0.00 0.91 0.00 100 1013.8
20260906090503 22 129 3.2 6.4 0.00 0.91 0.00 100 1013.8
20260906090003 22 129 3.2 6.4 0.00 0.91 0.00 100 1013.9
20260906085503 22 130 3.2 6.4 0.00 0.91 0.00 100 1013.8
20260906085003 22 130 3.2 6.4 0.00 0.91 0.00 100 1013.9
20260906084503 22 130 3.2 6.4 0.00 0.91 0.00 100 1013.8
20260906084003 22 130 0.0 4.8 0.00 0.91 0.00 100 1013.9
20260906083503 22 130 1.6 4.8 0.00 0.91 0.00 100 1013.7
20260906083003 22 131 1.6 4.8 0.00 0.91 0.00 100 1013.8
20260906082503 22 133 0.0 3.2 0.00 0.91 0.00 100 1013.6
20260906082003 22 133 0.0 4.8 0.00 0.91 0.00 100 1013.5
20260906081503 22 133 1.6 4.8 0.00 0.91 0.00 100 1013.3
20260906081003 22 145 1.6 4.8 0.00 0.91 0.00 100 1013.3
20260906080502 22 153 1.6 4.8 0.00 0.91 0.00 100 1013.3
20260906080003 22 93 0.0 4.8 0.00 0.91 0.00 100 1013.3
20260906075502 22 106 1.6 4.8 0.00 0.91 0.00 100 1013.2
20260906075003 22 105 1.6 6.4 0.00 0.91 0.00 100 1013.3
20260906074503 22 105 1.6 9.7 0.00 0.91 0.00 100 1013.4
20260906074003 22 165 1.6 9.7 0.00 0.91 0.00 100 1013.4
20260906073503 22 153 1.6 6.4 0.00 0.91 0.00 100 1013.5
20260906073003 22 137 0.0 8.0 0.00 0.91 0.00 100 1013.3
20260906072503 22 151 3.2 9.7 0.00 0.91 0.00 100 1013.3
20260906072003 22 96 3.2 9.7 0.00 0.91 0.00 100 1013.4
20260906071503 22 86 3.2 11.3 0.00 0.91 0.00 100 1013.2
20260906071003 22 98 3.2 11.3 0.00 0.91 0.00 100 1013.3
20260906070503 22 109 4.8 8.0 0.00 0.91 0.00 100 1013.2
20260906070002 22 112 3.2 8.0 0.00 0.91 0.00 100 1013.4
20260906065503 22 103 1.6 8.0 0.00 0.91 0.00 100 1013.3
20260906065002 22 104 4.8 8.0 0.00 0.91 0.00 100 1013.4
20260906064503 22 105 4.8 8.0 0.00 0.91 0.00 100 1013.4
20260906064003 22 92 3.2 6.4 0.00 0.91 0.00 100 1013.6
20260906063503 22 107 3.2 6.4 0.00 0.91 0.00 100 1013.6
20260906063003 22 107 3.2 6.4 0.00 0.91 0.00 100 1013.5
20260906062503 22 107 3.2 6.4 0.00 0.91 0.00 100 1013.6
20260906062003 22 107 1.6 6.4 0.00 0.91 0.00 100 1013.5
20260906061503 22 107 3.2 8.0 0.00 0.91 0.00 100 1013.4
20260906061003 22 103 3.2 8.0 0.00 0.91 0.00 100 1013.4
20260906060503 22 104 3.2 6.4 0.00 0.91 0.00 100 1013.5
20260906060003 22 104 3.2 4.8 0.00 0.91 0.00 100 1013.6
20260906055503 22 104 1.6 4.8 0.00 0.91 0.00 100 1013.5
20260906055003 22 104 1.6 4.8 0.00 0.91 0.00 100 1013.5
20260906054502 22 104 0.0 3.2 0.00 0.91 0.00 100 1013.6
20260906054003 22 104 0.0 1.6 0.00 0.91 0.00 100 1013.7
20260906053503 22 104 0.0 1.6 0.00 0.91 0.00 99 1013.9
20260906053003 22 104 0.0 1.6 0.00 0.91 0.00 99 1013.9
20260906052503 22 104 0.0 3.2 0.00 0.91 0.00 99 1013.7
20260906052003 22 104 0.0 4.8 0.00 0.91 0.00 99 1014.0
20260906051503 22 104 1.6 4.8 0.00 0.91 0.00 99 1013.9
20260906051003 22 104 3.2 4.8 0.00 0.91 0.00 98 1014.0
20260906050503 22 104 1.6 4.8 0.00 0.91 0.00 97 1014.0
20260906050002 22 104 0.0 4.8 0.00 0.91 0.91 97 1014.1
20260906045503 22 104 1.6 4.8 0.00 0.91 0.91 97 1014.0
20260906045002 22 104 1.6 4.8 0.00 0.91 0.91 96 1013.9
20260906044503 22 104 1.6 4.8 0.00 0.91 0.91 96 1014.1
20260906044003 22 104 0.0 1.6 0.00 0.91 0.91 95 1014.1
20260906043503 22 104 0.0 3.2 0.00 0.91 0.91 95 1014.1
20260906043003 23 104 1.6 4.8 0.00 0.91 0.91 95 1013.9
20260906042503 23 104 1.6 6.4 0.00 0.91 0.91 94 1014.0
20260906042003 23 104 1.6 6.4 0.00 0.91 0.91 94 1014.0
20260906041503 23 182 1.6 6.4 0.00 0.91 0.91 94 1014.0
20260906041003 23 158 1.6 6.4 0.00 0.91 0.91 94 1013.8
20260906040503 23 142 1.6 3.2 0.00 0.91 0.91 93 1014.0
20260906040003 23 142 0.0 3.2 0.00 0.91 0.91 93 1013.9
20260906035503 23 142 1.6 4.8 0.00 0.91 0.91 93 1013.9
20260906035003 23 168 1.6 6.4 0.00 0.91 0.91 92 1013.9
20260906034503 23 168 1.6 9.7 0.00 0.91 0.91 92 1013.9
20260906034003 23 158 1.6 9.7 0.00 0.91 0.91 92 1014.0
20260906033503 23 138 3.2 11.3 0.00 0.91 0.91 91 1013.8
20260906033003 23 171 1.6 11.3 0.00 0.91 0.91 91 1013.8
20260906032503 23 194 3.2 9.7 0.00 0.91 0.91 90 1013.6
20260906032003 23 165 1.6 4.8 0.00 0.91 0.91 90 1013.6
20260906031503 23 165 1.6 9.7 0.00 0.91 0.91 89 1013.6
20260906031003 23 165 1.6 11.3 0.00 0.91 0.91 89 1013.6
20260906030503 23 192 1.6 11.3 0.00 0.91 0.91 88 1013.6
20260906030003 24 137 3.2 4.8 0.00 0.91 0.91 88 1013.4
20260906025503 24 185 1.6 4.8 0.00 0.91 0.91 87 1013.7
20260906025003 24 148 1.6 4.8 0.00 0.91 0.91 86 1013.6
20260906024503 24 110 0.0 4.8 0.00 0.91 0.91 86 1013.7
20260906024003 25 110 1.6 4.8 0.00 0.91 0.91 86 1013.7
20260906023503 25 115 1.6 6.4 0.00 0.91 0.91 85 1013.7
20260906023003 25 106 0.0 8.0 0.00 0.91 0.91 85 1013.6
20260906022503 25 114 1.6 8.0 0.00 0.91 0.91 84 1013.5
20260906022003 25 109 1.6 6.4 0.00 0.91 0.91 83 1013.4
20260906021503 25 106 1.6 8.0 0.00 0.91 0.91 83 1013.3
20260906021003 25 90 3.2 8.0 0.00 0.91 0.91 82 1013.2
20260906020503 25 143 1.6 4.8 0.00 0.91 0.91 82 1013.3
20260906020003 25 109 1.6 4.8 0.00 0.91 0.91 81 1013.4
20260906015502 25 109 0.0 3.2 0.00 0.91 0.91 81 1013.2
20260906015004 26 109 0.0 6.4 0.00 0.91 0.91 80 1012.9
20260906014502 26 109 1.6 6.4 0.00 0.91 0.91 80 1013.0
20260906014003 26 141 1.6 6.4 0.00 0.91 0.91 79 1013.1
20260906013503 26 162 1.6 4.8 0.00 0.91 0.91 78 1013.0
20260906013003 26 169 1.6 8.0 0.00 0.91 0.91 78 1013.0
20260906012503 26 108 1.6 8.0 0.00 0.91 0.91 77 1012.9
20260906012003 26 176 1.6 8.0 0.00 0.91 0.91 76 1012.9
20260906011503 26 172 1.6 8.0 0.00 0.91 0.91 76 1012.9
20260906011003 27 100 1.6 4.8 0.00 0.91 0.91 75 1012.9
20260906010503 27 139 1.6 4.8 0.00 0.91 0.91 74 1013.0
20260906010003 27 141 1.6 8.0 0.00 0.91 0.91 73 1013.0
20260906005503 27 118 1.6 8.0 0.00 0.91 0.91 73 1013.0
20260906005003 27 160 1.6 9.7 0.00 0.91 0.91 72 1012.9
20260906004503 28 103 3.2 9.7 0.00 0.91 0.91 71 1012.9
20260906004003 28 161 1.6 6.4 0.00 0.91 0.91 70 1012.9
20260906003503 28 135 3.2 9.7 0.00 0.91 0.91 69 1013.0
20260906003002 28 80 1.6 9.7 0.00 0.91 0.91 69 1012.9
20260906002503 28 135 1.6 9.7 0.00 0.91 0.91 67 1012.7
20260906002003 29 150 1.6 9.7 0.00 0.91 0.91 66 1012.6
20260906001503 29 137 3.2 8.0 0.00 0.91 0.91 65 1012.6
20260906001002 29 168 1.6 6.4 0.00 0.91 0.91 64 1012.5
20260906000503 30 166 1.6 9.7 0.00 0.91 0.91 63 1012.5
20260906000003 30 161 1.6 9.7 0.00 0.91 0.91 63 1012.3
20260905235503 30 151 1.6 6.4 0.00 0.91 0.91 63 1012.0
20260905235003 30 145 3.2 11.3 0.00 0.91 0.91 63 1012.0
20260905234503 30 184 3.2 11.3 0.00 0.91 0.91 62 1012.1
20260905234003 30 180 1.6 12.9 0.00 0.91 0.91 62 1012.0
20260905233503 30 183 4.8 12.9 0.00 0.91 0.91 61 1012.1
20260905233003 30 203 1.6 12.9 0.00 0.91 0.91 61 1012.1
20260905232503 30 173 3.2 16.1 0.00 0.91 0.91 62 1012.1
20260905232002 30 173 3.2 17.7 0.00 0.91 0.91 62 1012.1
20260905231503 30 139 6.4 17.7 0.00 0.91 0.91 63 1012.0
20260905231002 30 158 3.2 12.9 0.00 0.91 0.91 63 1012.1
20260905230503 30 156 4.8 9.7 0.00 0.91 0.91 62 1012.1
20260905230003 30 191 3.2 8.0 0.00 0.91 0.91 62 1012.1
20260905225503 31 178 4.8 12.9 0.00 0.91 0.91 61 1012.1
20260905225003 31 167 6.4 12.9 0.00 0.91 0.91 61 1012.1
20260905224503 31 139 3.2 9.7 0.00 0.91 0.91 61 1012.1
20260905224003 31 152 1.6 11.3 0.00 0.91 0.91 60 1012.1
20260905223503 31 167 4.8 12.9 0.00 0.91 0.91 59 1012.1
20260905223003 31 184 1.6 12.9 0.00 0.91 0.91 60 1012.2
20260905222503 31 205 3.2 11.3 0.00 0.91 0.91 59 1012.2
20260905222003 31 164 1.6 9.7 0.00 0.91 0.91 60 1012.2
20260905221502 31 190 4.8 12.9 0.00 0.91 0.91 60 1012.1
20260905221003 31 162 3.2 12.9 0.00 0.91 0.91 60 1012.2
20260905220503 31 116 3.2 9.7 0.00 0.91 0.91 59 1012.1
20260905220003 31 160 3.2 8.0 0.00 0.91 0.91 60 1012.1
20260905215503 31 140 3.2 9.7 0.00 0.91 0.91 61 1012.0
20260905215003 31 116 4.8 11.3 0.00 0.91 0.91 60 1012.0
20260905214503 31 178 4.8 11.3 0.00 0.91 0.91 62 1012.1
20260905214003 31 135 3.2 11.3 0.00 0.91 0.91 61 1012.0
20260905213503 31 144 3.2 11.3 0.00 0.91 0.91 60 1012.0
20260905213002 31 168 4.8 11.3 0.00 0.91 0.91 59 1011.9
20260905212503 31 148 3.2 11.3 0.00 0.91 0.91 59 1012.0
20260905212002 31 175 3.2 11.3 0.00 0.91 0.91 59 1011.9
20260905211503 31 118 4.8 11.3 0.00 0.91 0.91 59 1011.9
20260905211002 30 110 3.2 11.3 0.00 0.91 0.91 60 1011.9
20260905210503 30 101 4.8 12.9 0.00 0.91 0.91 59 1012.0
20260905210003 30 119 3.2 12.9 0.00 0.91 0.91 59 1012.0
20260905205503 30 115 4.8 11.3 0.00 0.91 0.91 58 1012.0
20260905205003 31 117 4.8 11.3 0.00 0.91 0.91 58 1011.9
20260905204503 31 159 6.4 12.9 0.00 0.91 0.91 58 1011.9
20260905204002 30 151 4.8 14.5 0.00 0.91 0.91 57 1011.9
20260905203503 31 149 4.8 14.5 0.00 0.91 0.91 57 1011.9
20260905203003 31 117 4.8 12.9 0.00 0.91 0.91 58 1011.8
20260905202503 31 110 4.8 12.9 0.00 0.91 0.91 58 1011.7
20260905202003 31 122 4.8 12.9 0.00 0.91 0.91 58 1011.8
20260905201503 31 171 4.8 17.7 0.00 0.91 0.91 59 1011.8
20260905201003 31 96 8.0 17.7 0.00 0.91 0.91 59 1011.8
20260905200502 30 111 4.8 16.1 0.00 0.91 0.91 60 1011.8
20260905200003 30 101 6.4 16.1 0.00 0.91 0.91 60 1011.6
20260905195502 30 98 8.0 14.5 0.00 0.91 0.91 59 1011.7
20260905195004 30 132 3.2 12.9 0.00 0.91 0.91 61 1011.8
20260905194503 30 134 4.8 19.3 0.00 0.91 0.91 63 1011.9
20260905194003 30 98 3.2 19.3 0.00 0.91 0.91 63 1011.9